Location: St. Louis
(38.6270°N, 90.1994°W)
Time: 13:15:28
(UTC-06:00)

Vanguard 2 - All Passes

Search period start: 30 November 2021 00:00
Search period end: 10 December 2021 00:00
Orbit: 554 x 2936 km, 32.9° (Epoch: 30 November)

Date Brightness Start Highest point End Pass type
(mag) Time Alt. Az. Time Alt. Az. Time Alt. Az.
30 Nov - 12:57:17 10° SSW 13:01:00 22° SSE 13:05:56 10° E daylight
30 Nov - 15:02:58 10° WSW 15:08:43 54° SSE 15:18:15 10° E daylight
30 Nov - 17:10:16 10° W 17:17:58 58° S 17:30:52 10° ESE visible
30 Nov - 19:18:42 10° W 19:28:14 39° SSW 19:42:14 10° SE visible
30 Nov - 21:30:44 10° WSW 21:38:57 18° SW 21:48:37 10° S visible
01 Dec - 13:14:10 10° SSW 13:18:18 29° SSE 13:24:08 10° E daylight
01 Dec - 15:20:29 10° WSW 15:26:21 57° S 15:36:10 10° E daylight
01 Dec - 17:27:57 10° W 17:35:43 52° SSW 17:48:30 10° ESE visible
01 Dec - 19:36:49 10° W 19:45:59 32° SSW 19:58:54 10° SSE visible
01 Dec - 21:52:01 10° SW 21:56:38 12° SW 22:01:39 10° SSW visible
02 Dec - 13:31:21 10° SW 13:35:44 36° SSE 13:42:10 10° E daylight
02 Dec - 15:38:02 10° WSW 15:44:01 57° S 15:54:01 10° ESE daylight
02 Dec - 17:45:41 10° W 17:53:27 45° SSW 18:05:56 10° SE visible
02 Dec - 19:55:15 10° WSW 20:03:44 25° SSW 20:15:05 10° SSE visible
03 Dec - 11:43:52 10° S 11:45:54 13° SSE 11:48:11 10° ESE daylight
03 Dec - 13:48:41 10° WSW 13:53:14 43° SSE 14:00:06 10° E daylight
03 Dec - 15:55:39 10° W 16:01:43 54° S 16:11:49 10° ESE daylight
03 Dec - 18:03:32 10° W 18:11:12 38° SSW 18:23:07 10° SE visible
03 Dec - 20:14:16 10° WSW 20:21:28 18° SSW 20:30:30 10° S visible
04 Dec - 12:00:13 10° SSW 12:03:14 19° SSE 12:06:50 10° ESE daylight
04 Dec - 14:06:08 10° WSW 14:10:48 48° S 14:17:58 10° E daylight
04 Dec - 16:13:18 10° W 16:19:25 49° S 16:29:29 10° ESE daylight
04 Dec - 18:21:33 10° W 18:28:58 31° SSW 18:39:57 10° SSE visible
04 Dec - 20:34:47 10° SW 20:39:15 12° SSW 20:44:17 10° SSW visible
05 Dec - 12:17:10 10° SW 12:20:38 26° SSE 12:24:58 10° E daylight
05 Dec - 14:23:40 10° WSW 14:28:25 50° S 14:35:47 10° ESE daylight
05 Dec - 16:31:00 10° W 16:37:07 43° SSW 16:47:00 10° SE daylight
05 Dec - 18:39:52 10° WSW 18:46:44 24° SSW 18:56:19 10° SSE visible
06 Dec - 12:34:23 10° SW 12:38:07 33° SSE 12:42:55 10° E daylight
06 Dec - 14:41:15 10° WSW 14:46:03 49° S 14:53:33 10° ESE daylight
06 Dec - 16:48:48 10° W 16:54:51 36° SSW 17:04:16 10° SE visible
06 Dec - 18:58:42 10° WSW 19:04:31 18° SSW 19:11:59 10° S visible
07 Dec - 10:46:11 10° S 10:48:11 13° SSE 10:50:15 10° ESE daylight
07 Dec - 12:51:46 10° WSW 12:55:38 39° SSE 13:00:46 10° E daylight
07 Dec - 14:58:52 10° WSW 15:03:43 45° S 15:11:14 10° ESE daylight
07 Dec - 17:06:47 10° WSW 17:12:35 28° SSW 17:21:13 10° SE visible
07 Dec - 19:19:05 10° SW 19:22:19 12° SSW 19:25:59 10° SSW visible
08 Dec - 11:02:44 10° SSW 11:05:39 19° SSE 11:08:41 10° ESE daylight
08 Dec - 13:09:16 10° WSW 13:13:13 43° S 13:18:33 10° ESE daylight
08 Dec - 15:16:34 10° WSW 15:21:23 39° S 15:28:45 10° SE daylight
08 Dec - 17:25:01 10° WSW 17:30:21 22° SSW 17:37:45 10° SSE visible
09 Dec - 11:19:48 10° SW 11:23:09 26° SSE 11:26:42 10° ESE daylight
09 Dec - 13:26:50 10° WSW 13:30:49 43° S 13:36:16 10° ESE daylight
09 Dec - 15:34:20 10° WSW 15:39:04 32° SSW 15:46:06 10° SE daylight
09 Dec - 17:43:50 10° WSW 17:48:07 16° SSW 17:53:32 10° S visible
